| time (UTC) | temp F | wind direction | speed MPH | gust MPH | rain 1hr in | rain 24hr in | rain mn in | humidity % | barometer mb |
| 20260831002018 | 67 | 112 | 2.0 | 7.0 | 0.00 | 0.00 | 0.00 | 79 | 1015.5 |
| 20260831001017 | 67 | 109 | 2.0 | 6.0 | 0.00 | 0.00 | 0.00 | 78 | 1015.6 |
| 20260831000015 | 67 | 100 | 3.0 | 8.0 | 0.00 | 0.00 | 0.00 | 78 | 1015.7 |
| 20260830235037 | 67 | 105 | 3.0 | 7.0 | 0.00 | 0.00 | 0.00 | 78 | 1015.8 |
| 20260830234017 | 67 | 115 | 2.0 | 5.0 | 0.00 | 0.00 | 0.00 | 78 | 1015.9 |
| 20260830233018 | 66 | 114 | 2.0 | 4.0 | 0.00 | 0.00 | 0.00 | 80 | 1016.0 |
| 20260830232017 | 66 | 147 | 1.0 | 2.0 | 0.00 | 0.00 | 0.00 | 80 | 1016.0 |
| 20260830231018 | 66 | 147 | 0.0 | 2.0 | 0.00 | 0.00 | 0.00 | 79 | 1016.0 |
| 20260830230017 | 67 | 147 | 1.0 | 2.0 | 0.00 | 0.00 | 0.00 | 79 | 1016.0 |
| 20260830225018 | 66 | 160 | 1.0 | 4.0 | 0.00 | 0.00 | 0.00 | 80 | 1016.1 |
| 20260830224020 | 65 | 186 | 2.0 | 6.0 | 0.00 | 0.00 | 0.00 | 81 | 1016.3 |
| 20260830223037 | 66 | 160 | 1.0 | 2.0 | 0.00 | 0.00 | 0.00 | 81 | 1016.4 |
| 20260830222038 | 66 | 160 | 1.0 | 2.0 | 0.00 | 0.00 | 0.00 | 81 | 1016.5 |
| 20260830221016 | 67 | 160 | 0.0 | 1.0 | 0.00 | 0.00 | 0.00 | 81 | 1016.5 |
| 20260830220038 | 67 | 0.0 | 0.0 | 0.00 | 0.00 | 0.00 | 80 | 1016.4 | |
| 20260830215017 | 66 | 144 | 2.0 | 3.0 | 0.00 | 0.00 | 0.00 | 83 | 1016.4 |
| 20260830214036 | 66 | 0.0 | 0.0 | 0.00 | 0.00 | 0.00 | 84 | 1016.4 | |
| 20260830213016 | 66 | 0.0 | 0.0 | 0.00 | 0.00 | 0.00 | 84 | 1016.4 | |
| 20260830212038 | 66 | 154 | 1.0 | 2.0 | 0.00 | 0.00 | 0.00 | 84 | 1016.4 |
| 20260830211019 | 66 | 0.0 | 0.0 | 0.00 | 0.00 | 0.00 | 84 | 1016.3 | |
| 20260830210022 | 67 | 0.0 | 0.0 | 0.00 | 0.00 | 0.00 | 83 | 1016.3 | |
| 20260830205017 | 67 | 154 | 0.0 | 2.0 | 0.00 | 0.00 | 0.00 | 82 | 1016.3 |
| 20260830204015 | 66 | 0.0 | 0.0 | 0.00 | 0.00 | 0.00 | 82 | 1016.3 | |
| 20260830203016 | 66 | 0.0 | 0.0 | 0.00 | 0.00 | 0.00 | 82 | 1016.4 | |
| 20260830202016 | 66 | 0.0 | 0.0 | 0.00 | 0.00 | 0.00 | 81 | 1016.4 | |
| 20260830201016 | 66 | 0.0 | 0.0 | 0.00 | 0.00 | 0.00 | 81 | 1016.4 | |
| 20260830200018 | 67 | 190 | 1.0 | 2.0 | 0.00 | 0.00 | 0.00 | 80 | 1016.5 |
| 20260830195138 | 67 | 0.0 | 0.0 | 0.00 | 0.00 | 0.00 | 79 | 1016.5 | |
| 20260830194017 | 68 | 0.0 | 0.0 | 0.00 | 0.00 | 0.00 | 78 | 1016.5 | |
| 20260830193037 | 69 | 0.0 | 0.0 | 0.00 | 0.00 | 0.00 | 77 | 1016.5 | |
| 20260830192015 | 69 | 214 | 0.0 | 2.0 | 0.00 | 0.00 | 0.00 | 76 | 1016.5 |
| 20260830191016 | 70 | 229 | 1.0 | 2.0 | 0.00 | 0.00 | 0.00 | 75 | 1016.4 |
| 20260830190016 | 70 | 232 | 0.0 | 1.0 | 0.00 | 0.00 | 0.00 | 75 | 1016.4 |
| 20260830185017 | 70 | 125 | 1.0 | 3.0 | 0.00 | 0.00 | 0.00 | 73 | 1016.3 |
| 20260830184017 | 71 | 112 | 0.0 | 1.0 | 0.00 | 0.00 | 0.00 | 73 | 1016.2 |
| 20260830183040 | 72 | 106 | 2.0 | 4.0 | 0.00 | 0.00 | 0.00 | 70 | 1016.1 |
| 20260830182037 | 72 | 38 | 1.0 | 2.0 | 0.00 | 0.00 | 0.00 | 69 | 1016.1 |
| 20260830181016 | 74 | 0.0 | 0.0 | 0.00 | 0.00 | 0.00 | 67 | 1016.1 | |
| 20260830180017 | 75 | 0.0 | 0.0 | 0.00 | 0.00 | 0.00 | 66 | 1016.1 | |
| 20260830175016 | 75 | 24 | 0.0 | 2.0 | 0.00 | 0.00 | 0.00 | 65 | 1016.0 |
| 20260830174017 | 76 | 24 | 0.0 | 2.0 | 0.00 | 0.00 | 0.00 | 63 | 1016.0 |
| 20260830173016 | 76 | 18 | 1.0 | 3.0 | 0.00 | 0.00 | 0.00 | 61 | 1015.8 |
| 20260830172015 | 77 | 7 | 1.0 | 4.0 | 0.00 | 0.00 | 0.00 | 59 | 1015.8 |
| 20260830171016 | 77 | 13 | 3.0 | 5.0 | 0.00 | 0.00 | 0.00 | 58 | 1015.8 |
| 20260830170018 | 77 | 350 | 3.0 | 5.0 | 0.00 | 0.00 | 0.00 | 58 | 1015.7 |
| 20260830165019 | 77 | 6 | 3.0 | 5.0 | 0.00 | 0.00 | 0.00 | 57 | 1015.6 |
| 20260830164016 | 77 | 309 | 2.0 | 4.0 | 0.00 | 0.00 | 0.00 | 58 | 1015.7 |
| 20260830163038 | 78 | 337 | 4.0 | 7.0 | 0.00 | 0.00 | 0.00 | 56 | 1015.7 |
| 20260830162016 | 78 | 331 | 2.0 | 4.0 | 0.00 | 0.00 | 0.00 | 58 | 1015.7 |
| 20260830161017 | 77 | 4 | 3.0 | 5.0 | 0.00 | 0.00 | 0.00 | 57 | 1015.7 |
| 20260830160015 | 78 | 18 | 2.0 | 6.0 | 0.00 | 0.00 | 0.00 | 57 | 1015.6 |
| 20260830155019 | 78 | 6 | 2.0 | 5.0 | 0.00 | 0.00 | 0.00 | 56 | 1015.6 |
| 20260830154017 | 78 | 13 | 2.0 | 7.0 | 0.00 | 0.00 | 0.00 | 56 | 1015.7 |
| 20260830153017 | 78 | 0 | 2.0 | 4.0 | 0.00 | 0.00 | 0.00 | 55 | 1015.7 |
| 20260830152023 | 79 | 44 | 2.0 | 5.0 | 0.00 | 0.00 | 0.00 | 55 | 1015.7 |
| 20260830151056 | 79 | 46 | 3.0 | 5.0 | 0.00 | 0.00 | 0.00 | 56 | 1015.6 |
| 20260830150020 | 78 | 10 | 3.0 | 7.0 | 0.00 | 0.00 | 0.00 | 57 | 1015.7 |
| 20260830145016 | 78 | 9 | 5.0 | 9.0 | 0.00 | 0.00 | 0.00 | 56 | 1015.7 |
| 20260830144016 | 79 | 24 | 4.0 | 8.0 | 0.00 | 0.00 | 0.00 | 55 | 1015.7 |
| 20260830143036 | 79 | 40 | 4.0 | 9.0 | 0.00 | 0.00 | 0.00 | 54 | 1015.8 |
| 20260830142037 | 79 | 31 | 3.0 | 7.0 | 0.00 | 0.00 | 0.00 | 54 | 1015.9 |
| 20260830141017 | 80 | 1 | 3.0 | 5.0 | 0.00 | 0.00 | 0.00 | 53 | 1015.7 |
| 20260830140016 | 79 | 332 | 4.0 | 8.0 | 0.00 | 0.00 | 0.00 | 53 | 1015.7 |
| 20260830135018 | 80 | 345 | 5.0 | 10.0 | 0.00 | 0.00 | 0.00 | 53 | 1015.8 |
| 20260830134021 | 80 | 325 | 5.0 | 9.0 | 0.00 | 0.00 | 0.00 | 52 | 1015.9 |
| 20260830133015 | 81 | 229 | 4.0 | 8.0 | 0.00 | 0.00 | 0.00 | 52 | 1015.9 |
| 20260830132016 | 81 | 237 | 5.0 | 10.0 | 0.00 | 0.00 | 0.00 | 52 | 1016.0 |
| 20260830131015 | 81 | 2 | 2.0 | 5.0 | 0.00 | 0.00 | 0.00 | 50 | 1016.0 |
| 20260830130017 | 82 | 183 | 2.0 | 5.0 | 0.00 | 0.00 | 0.00 | 50 | 1016.1 |
| 20260830125036 | 81 | 283 | 4.0 | 9.0 | 0.00 | 0.00 | 0.00 | 50 | 1016.3 |
| 20260830124015 | 82 | 247 | 3.0 | 8.0 | 0.00 | 0.00 | 0.00 | 52 | 1016.4 |
| 20260830123037 | 81 | 295 | 4.0 | 10.0 | 0.00 | 0.00 | 0.00 | 53 | 1016.4 |
| 20260830122015 | 81 | 5 | 3.0 | 7.0 | 0.00 | 0.00 | 0.00 | 52 | 1016.5 |
| 20260830121017 | 80 | 332 | 3.0 | 8.0 | 0.00 | 0.00 | 0.00 | 53 | 1016.5 |
| 20260830120015 | 79 | 268 | 1.0 | 7.0 | 0.00 | 0.00 | 0.00 | 54 | 1016.6 |
| 20260830115040 | 81 | 250 | 3.0 | 7.0 | 0.00 | 0.00 | 0.00 | 53 | 1016.7 |
| 20260830114017 | 81 | 271 | 4.0 | 8.0 | 0.00 | 0.00 | 0.00 | 52 | 1016.8 |
| 20260830113018 | 80 | 268 | 4.0 | 9.0 | 0.00 | 0.00 | 0.00 | 53 | 1016.9 |
| 20260830112015 | 80 | 265 | 3.0 | 9.0 | 0.00 | 0.00 | 0.00 | 55 | 1016.9 |
| 20260830111015 | 80 | 257 | 3.0 | 7.0 | 0.00 | 0.00 | 0.00 | 54 | 1017.0 |
| 20260830110016 | 79 | 269 | 4.0 | 8.0 | 0.00 | 0.00 | 0.00 | 55 | 1017.1 |
| 20260830105017 | 79 | 233 | 2.0 | 7.0 | 0.00 | 0.00 | 0.00 | 53 | 1017.2 |
| 20260830104017 | 79 | 195 | 5.0 | 12.0 | 0.00 | 0.00 | 0.00 | 54 | 1017.3 |
| 20260830103016 | 79 | 241 | 4.0 | 9.0 | 0.00 | 0.00 | 0.00 | 56 | 1017.4 |
| 20260830102017 | 78 | 254 | 3.0 | 8.0 | 0.00 | 0.00 | 0.00 | 58 | 1017.4 |
| 20260830101015 | 78 | 229 | 5.0 | 10.0 | 0.00 | 0.00 | 0.00 | 58 | 1017.6 |
| 20260830100035 | 77 | 246 | 3.0 | 7.0 | 0.00 | 0.00 | 0.00 | 57 | 1017.7 |
| 20260830095017 | 77 | 238 | 5.0 | 10.0 | 0.00 | 0.00 | 0.00 | 58 | 1017.8 |
| 20260830094015 | 76 | 209 | 5.0 | 9.0 | 0.00 | 0.00 | 0.00 | 58 | 1017.8 |
| 20260830093019 | 76 | 208 | 5.0 | 9.0 | 0.00 | 0.00 | 0.00 | 60 | 1017.9 |
| 20260830092016 | 75 | 202 | 5.0 | 10.0 | 0.00 | 0.00 | 0.00 | 60 | 1017.9 |
| 20260830091015 | 75 | 221 | 3.0 | 10.0 | 0.00 | 0.00 | 0.00 | 61 | 1018.0 |
| 20260830090016 | 74 | 212 | 5.0 | 10.0 | 0.00 | 0.00 | 0.00 | 60 | 1018.1 |
| 20260830085016 | 74 | 238 | 4.0 | 7.0 | 0.00 | 0.00 | 0.00 | 63 | 1018.1 |
| 20260830084017 | 73 | 213 | 4.0 | 12.0 | 0.00 | 0.00 | 0.00 | 63 | 1018.1 |
| 20260830083036 | 73 | 190 | 2.0 | 6.0 | 0.00 | 0.00 | 0.00 | 65 | 1018.1 |
| 20260830082017 | 71 | 194 | 2.0 | 4.0 | 0.00 | 0.00 | 0.00 | 68 | 1018.2 |
| 20260830081016 | 70 | 195 | 3.0 | 5.0 | 0.00 | 0.00 | 0.00 | 70 | 1018.2 |
| 20260830080015 | 68 | 179 | 2.0 | 5.0 | 0.00 | 0.00 | 0.00 | 73 | 1018.4 |
| 20260830075016 | 68 | 160 | 1.0 | 4.0 | 0.00 | 0.00 | 0.00 | 74 | 1018.4 |
| 20260830074015 | 68 | 185 | 2.0 | 5.0 | 0.00 | 0.00 | 0.00 | 74 | 1018.3 |
| 20260830073016 | 67 | 155 | 2.0 | 7.0 | 0.00 | 0.00 | 0.00 | 75 | 1018.3 |
| 20260830072036 | 66 | 157 | 1.0 | 4.0 | 0.00 | 0.00 | 0.00 | 76 | 1018.3 |
| 20260830071036 | 65 | 163 | 1.0 | 4.0 | 0.00 | 0.00 | 0.00 | 77 | 1018.3 |
| 20260830070037 | 65 | 163 | 1.0 | 2.0 | 0.00 | 0.00 | 0.00 | 79 | 1018.2 |
| 20260830065015 | 64 | 163 | 1.0 | 4.0 | 0.00 | 0.00 | 0.00 | 79 | 1018.2 |
| 20260830064030 | 64 | 193 | 2.0 | 5.0 | 0.00 | 0.00 | 0.00 | 80 | 1018.3 |
| 20260830063015 | 63 | 191 | 1.0 | 2.0 | 0.00 | 0.00 | 0.00 | 79 | 1018.1 |
| 20260830062017 | 63 | 191 | 0.0 | 2.0 | 0.00 | 0.00 | 0.00 | 80 | 1018.1 |
| 20260830061016 | 63 | 191 | 0.0 | 2.0 | 0.00 | 0.00 | 0.00 | 80 | 1018.1 |
| 20260830060018 | 62 | 191 | 1.0 | 4.0 | 0.00 | 0.00 | 0.00 | 81 | 1018.1 |
| 20260830055016 | 61 | 202 | 1.0 | 2.0 | 0.00 | 0.00 | 0.00 | 82 | 1017.9 |
| 20260830054015 | 61 | 249 | 1.0 | 2.0 | 0.00 | 0.00 | 0.00 | 81 | 1017.9 |
| 20260830053016 | 62 | 224 | 1.0 | 4.0 | 0.00 | 0.00 | 0.00 | 81 | 1017.8 |
| 20260830052015 | 62 | 193 | 3.0 | 7.0 | 0.00 | 0.00 | 0.00 | 80 | 1017.7 |
| 20260830051037 | 62 | 185 | 3.0 | 6.0 | 0.00 | 0.00 | 0.00 | 80 | 1017.7 |
| 20260830050037 | 61 | 181 | 3.0 | 7.0 | 0.00 | 0.00 | 0.00 | 80 | 1017.6 |
| 20260830045018 | 61 | 193 | 2.0 | 5.0 | 0.00 | 0.01 | 0.00 | 80 | 1017.6 |
| 20260830044017 | 62 | 182 | 1.0 | 4.0 | 0.00 | 0.01 | 0.00 | 79 | 1017.5 |
| 20260830043016 | 61 | 178 | 1.0 | 4.0 | 0.00 | 0.01 | 0.00 | 79 | 1017.5 |
| 20260830042016 | 61 | 175 | 1.0 | 2.0 | 0.00 | 0.01 | 0.00 | 79 | 1017.4 |
| 20260830041016 | 61 | 185 | 2.0 | 4.0 | 0.00 | 0.01 | 0.00 | 79 | 1017.4 |
| 20260830040017 | 61 | 181 | 2.0 | 4.0 | 0.00 | 0.01 | 0.00 | 78 | 1017.4 |
| 20260830035015 | 61 | 185 | 2.0 | 5.0 | 0.00 | 0.01 | 0.00 | 79 | 1017.4 |
| 20260830034017 | 61 | 185 | 3.0 | 6.0 | 0.00 | 0.01 | 0.00 | 79 | 1017.4 |
| 20260830033016 | 61 | 181 | 2.0 | 6.0 | 0.00 | 0.01 | 0.00 | 79 | 1017.5 |
| 20260830032017 | 61 | 182 | 1.0 | 3.0 | 0.00 | 0.01 | 0.00 | 79 | 1017.4 |
| 20260830031016 | 61 | 181 | 0.0 | 2.0 | 0.00 | 0.01 | 0.00 | 79 | 1017.5 |
| 20260830030016 | 61 | 178 | 1.0 | 3.0 | 0.00 | 0.01 | 0.00 | 78 | 1017.5 |
| 20260830025017 | 61 | 185 | 2.0 | 6.0 | 0.00 | 0.01 | 0.00 | 78 | 1017.6 |
| 20260830024015 | 61 | 182 | 2.0 | 6.0 | 0.00 | 0.01 | 0.00 | 79 | 1017.6 |
| 20260830023037 | 60 | 183 | 1.0 | 3.0 | 0.00 | 0.01 | 0.00 | 79 | 1017.5 |
| 20260830022036 | 60 | 182 | 2.0 | 5.0 | 0.00 | 0.01 | 0.00 | 79 | 1017.6 |
| 20260830021039 | 60 | 190 | 2.0 | 5.0 | 0.00 | 0.01 | 0.00 | 80 | 1017.5 |
| 20260830020016 | 60 | 189 | 2.0 | 6.0 | 0.00 | 0.01 | 0.00 | 79 | 1017.6 |
| 20260830015017 | 60 | 187 | 3.0 | 6.0 | 0.00 | 0.01 | 0.00 | 79 | 1017.6 |
| 20260830014016 | 60 | 184 | 2.0 | 6.0 | 0.00 | 0.01 | 0.00 | 80 | 1017.6 |
| 20260830013015 | 60 | 188 | 3.0 | 6.0 | 0.00 | 0.01 | 0.00 | 80 | 1017.7 |
| 20260830012017 | 59 | 180 | 1.0 | 3.0 | 0.00 | 0.01 | 0.00 | 80 | 1017.6 |
| 20260830011015 | 60 | 189 | 1.0 | 5.0 | 0.00 | 0.01 | 0.00 | 80 | 1017.5 |
| 20260830010016 | 60 | 188 | 3.0 | 7.0 | 0.00 | 0.01 | 0.00 | 80 | 1017.5 |
| 20260830005018 | 61 | 186 | 3.0 | 8.0 | 0.00 | 0.01 | 0.00 | 80 | 1017.4 |
| 20260830004017 | 61 | 188 | 5.0 | 9.0 | 0.00 | 0.01 | 0.00 | 79 | 1017.4 |
| 20260830003037 | 60 | 192 | 4.0 | 10.0 | 0.00 | 0.01 | 0.00 | 80 | 1017.5 |